| time (UTC) | temp C | wind direction | speed KPH | gust KPH | rain 1hr cm | rain 24hr cm | rain mn cm | humidity % | barometer mb |
| 20260902000046 | 28 | 145 | 12.9 | 16.1 | 0.00 | 0.00 | 0.00 | 33 | 1002.4 |
| 20260901234601 | 29 | 175 | 9.7 | 14.5 | 0.00 | 0.00 | 0.00 | 32 | 1002.6 |
| 20260901233024 | 29 | 143 | 8.0 | 16.1 | 0.00 | 0.00 | 0.00 | 30 | 1002.7 |
| 20260901231521 | 28 | 132 | 3.2 | 17.7 | 0.00 | 0.00 | 0.00 | 31 | 1002.6 |
| 20260901230008 | 28 | 191 | 9.7 | 22.5 | 0.00 | 0.00 | 0.00 | 31 | 1002.9 |
| 20260901224600 | 28 | 195 | 20.9 | 29.0 | 0.00 | 0.00 | 0.00 | 32 | 1002.9 |
| 20260901223041 | 28 | 221 | 25.7 | 30.6 | 0.00 | 0.00 | 0.00 | 33 | 1003.0 |
| 20260901221602 | 27 | 215 | 20.9 | 29.0 | 0.00 | 0.00 | 0.00 | 35 | 1003.3 |
| 20260901220017 | 27 | 194 | 14.5 | 22.5 | 0.00 | 0.00 | 0.00 | 34 | 1003.4 |
| 20260901214518 | 27 | 181 | 11.3 | 20.9 | 0.00 | 0.00 | 0.00 | 35 | 1003.5 |
| 20260901213003 | 27 | 221 | 14.5 | 25.7 | 0.00 | 0.00 | 0.00 | 33 | 1003.8 |
| 20260901211601 | 27 | 197 | 12.9 | 22.5 | 0.00 | 0.00 | 0.00 | 35 | 1003.9 |
| 20260901210056 | 26 | 198 | 11.3 | 22.5 | 0.00 | 0.00 | 0.00 | 35 | 1004.3 |
| 20260901204557 | 26 | 202 | 11.3 | 20.9 | 0.00 | 0.00 | 0.00 | 34 | 1004.5 |
| 20260901203101 | 26 | 204 | 4.8 | 16.1 | 0.00 | 0.00 | 0.00 | 37 | 1004.7 |
| 20260901201550 | 26 | 201 | 14.5 | 22.5 | 0.00 | 0.00 | 0.00 | 37 | 1005.0 |
| 20260901200044 | 25 | 204 | 11.3 | 19.3 | 0.00 | 0.00 | 0.00 | 40 | 1005.0 |
| 20260901194543 | 24 | 207 | 12.9 | 19.3 | 0.00 | 0.00 | 0.00 | 39 | 1005.2 |
| 20260901193024 | 24 | 155 | 4.8 | 11.3 | 0.00 | 0.00 | 0.00 | 41 | 1005.2 |
| 20260901191524 | 24 | 141 | 6.4 | 17.7 | 0.00 | 0.00 | 0.00 | 41 | 1005.2 |
| 20260901190057 | 23 | 207 | 12.9 | 17.7 | 0.00 | 0.00 | 0.00 | 41 | 1005.6 |
| 20260901184602 | 23 | 179 | 6.4 | 14.5 | 0.00 | 0.00 | 0.00 | 44 | 1005.7 |
| 20260901183040 | 23 | 195 | 9.7 | 16.1 | 0.00 | 0.00 | 0.00 | 44 | 1005.7 |
| 20260901181541 | 23 | 139 | 8.0 | 12.9 | 0.00 | 0.00 | 0.00 | 43 | 1005.7 |
| 20260901180035 | 22 | 193 | 3.2 | 8.0 | 0.00 | 0.00 | 0.00 | 47 | 1005.9 |
| 20260901174533 | 22 | 156 | 4.8 | 8.0 | 0.00 | 0.00 | 0.00 | 48 | 1006.0 |
| 20260901173030 | 21 | 134 | 3.2 | 9.7 | 0.00 | 0.00 | 0.00 | 48 | 1006.1 |
| 20260901171529 | 21 | 152 | 3.2 | 4.8 | 0.00 | 0.00 | 0.00 | 47 | 1005.9 |
| 20260901170028 | 21 | 128 | 1.6 | 8.0 | 0.00 | 0.00 | 0.00 | 48 | 1005.8 |
| 20260901164526 | 20 | 124 | 3.2 | 8.0 | 0.00 | 0.00 | 0.00 | 49 | 1005.9 |
| 20260901163005 | 20 | 141 | 3.2 | 8.0 | 0.00 | 0.00 | 0.00 | 52 | 1006.1 |
| 20260901161511 | 20 | 172 | 3.2 | 9.7 | 0.00 | 0.00 | 0.00 | 52 | 1006.0 |
| 20260901160052 | 19 | 105 | 3.2 | 6.4 | 0.00 | 0.00 | 0.00 | 51 | 1005.7 |
| 20260901154538 | 18 | 96 | 3.2 | 4.8 | 0.00 | 0.00 | 0.00 | 55 | 1005.6 |
| 20260901153021 | 18 | 120 | 0.0 | 3.2 | 0.00 | 0.00 | 0.00 | 56 | 1005.7 |
| 20260901151519 | 18 | 127 | 0.0 | 1.6 | 0.00 | 0.00 | 0.00 | 57 | 1005.8 |
| 20260901150104 | 17 | 79 | 0.0 | 0.0 | 0.00 | 0.00 | 0.00 | 60 | 1005.8 |
| 20260901144557 | 17 | 79 | 0.0 | 3.2 | 0.00 | 0.00 | 0.00 | 61 | 1005.7 |
| 20260901143037 | 16 | 89 | 4.8 | 6.4 | 0.00 | 0.00 | 0.00 | 62 | 1005.3 |
| 20260901141538 | 17 | 148 | 1.6 | 3.2 | 0.00 | 0.00 | 0.00 | 57 | 1005.1 |
| 20260901140017 | 17 | 61 | 0.0 | 3.2 | 0.00 | 0.00 | 0.00 | 55 | 1005.2 |
| 20260901134528 | 17 | 284 | 4.8 | 9.7 | 0.00 | 0.00 | 0.00 | 54 | 1005.1 |
| 20260901133056 | 17 | 188 | 1.6 | 8.0 | 0.00 | 0.00 | 0.00 | 53 | 1005.1 |
| 20260901131553 | 16 | 177 | 4.8 | 12.9 | 0.00 | 0.00 | 0.00 | 56 | 1004.9 |
| 20260901130035 | 17 | 6 | 1.6 | 6.4 | 0.00 | 0.00 | 0.00 | 60 | 1005.1 |
| 20260901124540 | 17 | 44 | 0.0 | 6.4 | 0.00 | 0.00 | 0.00 | 57 | 1004.9 |
| 20260901123017 | 17 | 69 | 0.0 | 3.2 | 0.00 | 0.00 | 0.00 | 56 | 1005.0 |
| 20260901121516 | 17 | 16 | 0.0 | 8.0 | 0.00 | 0.00 | 0.00 | 56 | 1004.8 |
| 20260901120104 | 16 | 67 | 3.2 | 4.8 | 0.00 | 0.00 | 0.00 | 59 | 1005.0 |
| 20260901114600 | 18 | 151 | 4.8 | 11.3 | 0.00 | 0.00 | 0.00 | 52 | 1005.1 |
| 20260901113105 | 18 | 270 | 3.2 | 4.8 | 0.00 | 0.00 | 0.00 | 51 | 1004.8 |
| 20260901111541 | 18 | 264 | 0.0 | 8.0 | 0.00 | 0.00 | 0.00 | 50 | 1004.7 |
| 20260901110022 | 18 | 279 | 3.2 | 11.3 | 0.00 | 0.00 | 0.00 | 49 | 1004.7 |
| 20260901104522 | 18 | 305 | 6.4 | 11.3 | 0.00 | 0.00 | 0.00 | 50 | 1004.7 |
| 20260901103009 | 18 | 302 | 4.8 | 11.3 | 0.00 | 0.00 | 0.00 | 49 | 1004.9 |
| 20260901101508 | 18 | 294 | 1.6 | 4.8 | 0.00 | 0.00 | 0.00 | 48 | 1005.0 |
| 20260901100008 | 18 | 270 | 0.0 | 4.8 | 0.00 | 0.00 | 0.00 | 50 | 1004.9 |
| 20260901094507 | 17 | 336 | 0.0 | 3.2 | 0.00 | 0.00 | 0.00 | 51 | 1004.9 |
| 20260901093016 | 18 | 159 | 0.0 | 4.8 | 0.00 | 0.00 | 0.00 | 48 | 1005.0 |
| 20260901091506 | 19 | 286 | 4.8 | 8.0 | 0.00 | 0.00 | 0.00 | 46 | 1004.9 |
| 20260901090008 | 19 | 309 | 1.6 | 6.4 | 0.00 | 0.00 | 0.00 | 45 | 1005.0 |
| 20260901084517 | 20 | 278 | 8.0 | 12.9 | 0.00 | 0.00 | 0.00 | 43 | 1004.8 |
| 20260901083047 | 20 | 276 | 6.4 | 9.7 | 0.00 | 0.00 | 0.00 | 42 | 1004.9 |
| 20260901081551 | 21 | 273 | 6.4 | 16.1 | 0.00 | 0.00 | 0.00 | 42 | 1005.0 |
| 20260901080037 | 21 | 283 | 11.3 | 19.3 | 0.00 | 0.00 | 0.00 | 38 | 1005.2 |
| 20260901074528 | 22 | 264 | 11.3 | 17.7 | 0.00 | 0.00 | 0.00 | 35 | 1005.2 |
| 20260901073010 | 22 | 278 | 4.8 | 12.9 | 0.00 | 0.00 | 0.00 | 35 | 1005.1 |
| 20260901071510 | 22 | 281 | 8.0 | 16.1 | 0.00 | 0.00 | 0.00 | 35 | 1005.2 |
| 20260901070100 | 22 | 276 | 12.9 | 19.3 | 0.00 | 0.00 | 0.00 | 36 | 1005.2 |
| 20260901064550 | 22 | 294 | 9.7 | 14.5 | 0.00 | 0.00 | 0.00 | 36 | 1005.4 |
| 20260901063032 | 22 | 266 | 11.3 | 16.1 | 0.00 | 0.00 | 0.00 | 35 | 1005.4 |
| 20260901061531 | 23 | 186 | 3.2 | 9.7 | 0.00 | 0.00 | 0.00 | 33 | 1005.4 |
| 20260901060013 | 23 | 302 | 8.0 | 14.5 | 0.00 | 0.00 | 0.00 | 33 | 1005.5 |
| 20260901054515 | 23 | 291 | 8.0 | 14.5 | 0.00 | 0.00 | 0.00 | 33 | 1005.6 |
| 20260901053128 | 23 | 296 | 9.7 | 17.7 | 0.00 | 0.00 | 0.00 | 32 | 1005.6 |
| 20260901051556 | 25 | 338 | 11.3 | 24.1 | 0.00 | 0.00 | 0.00 | 29 | 1005.7 |
| 20260901050054 | 26 | 345 | 17.7 | 27.4 | 0.00 | 0.00 | 0.00 | 28 | 1005.6 |
| 20260901044554 | 26 | 335 | 24.1 | 30.6 | 0.00 | 0.00 | 0.00 | 28 | 1005.4 |
| 20260901043040 | 26 | 339 | 25.7 | 33.8 | 0.00 | 0.00 | 0.00 | 28 | 1005.6 |
| 20260901041519 | 25 | 347 | 25.7 | 38.6 | 0.00 | 0.00 | 0.00 | 29 | 1005.8 |
| 20260901040017 | 25 | 356 | 20.9 | 25.7 | 0.00 | 0.00 | 0.00 | 29 | 1005.6 |
| 20260901034606 | 25 | 340 | 22.5 | 30.6 | 0.00 | 0.00 | 0.00 | 29 | 1005.6 |
| 20260901033058 | 25 | 346 | 14.5 | 25.7 | 0.00 | 0.00 | 0.00 | 29 | 1005.8 |
| 20260901031547 | 25 | 336 | 17.7 | 22.5 | 0.00 | 0.00 | 0.00 | 29 | 1005.6 |
| 20260901030041 | 26 | 343 | 20.9 | 27.4 | 0.00 | 0.00 | 0.00 | 28 | 1005.7 |
| 20260901024525 | 26 | 345 | 19.3 | 24.1 | 0.00 | 0.00 | 0.00 | 28 | 1005.7 |
| 20260901023021 | 25 | 340 | 17.7 | 24.1 | 0.00 | 0.00 | 0.00 | 29 | 1005.6 |
| 20260901021502 | 26 | 350 | 16.1 | 20.9 | 0.00 | 0.00 | 0.00 | 27 | 1005.8 |
| 20260901020114 | 27 | 354 | 16.1 | 22.5 | 0.00 | 0.00 | 0.00 | 25 | 1005.9 |
| 20260901014544 | 28 | 356 | 16.1 | 22.5 | 0.00 | 0.00 | 0.00 | 24 | 1006.0 |
| 20260901013044 | 29 | 27 | 14.5 | 22.5 | 0.00 | 0.00 | 0.00 | 23 | 1006.1 |
| 20260901011533 | 29 | 18 | 9.7 | 20.9 | 0.00 | 0.00 | 0.00 | 23 | 1006.2 |
| 20260901010021 | 29 | 30 | 16.1 | 24.1 | 0.00 | 0.00 | 0.00 | 23 | 1006.4 |
| 20260901004501 | 30 | 43 | 17.7 | 24.1 | 0.00 | 0.00 | 0.00 | 23 | 1006.6 |
| 20260901003123 | 30 | 8 | 14.5 | 20.9 | 0.00 | 0.00 | 0.00 | 22 | 1006.7 |
| 20260901001555 | 30 | 21 | 14.5 | 22.5 | 0.00 | 0.00 | 0.00 | 23 | 1007.0 |